Location: Albuquerque Trailhead
(34.7934°N, 106.3736°W)
Time: 02:13:22
(UTC+00:00)

CZ-2D R/B - Pass Details

Date: 20 June 2021
Orbit: 791 x 845 km, 98.7° (Epoch: 27 July)

Event Time Altitude Azimuth Distance (km) Brightness Sun altitude
Rises 08:21:17 0° 17° (NNE) 3,294 6.5 -29.2°
Reaches altitude 10° 08:23:38 10° 20° (NNE) 2,362 5.5 -29.0°
Enters shadow 08:28:30 62° 83° (E) 893 2.3 -28.7°
